Theta_e
304 305 304 304 304 304 304 304 305 305 305 305 305 305 306 306 306 306 306 306 305 306 303 294 297 303 299 296 296 296 297 300 304 307 308 310 311 312 313 312 311 309 306 309 312 313 314 314 309 306 310 311 311 315 314 315 321 326 327 327 328 327 327 327 325 325 328 332 329 329 330 328 329 328 327 325 320 319 319 322 320 317 321 327 331 333 335 337
304 304 304 304 304 304 304 304 304 304 305 305 305 305 305 305 305 306 305 306 305 306 305 297 294 300 298 295 295 296 298 300 302 304 305 309 312 312 312 311 310 308 306 308 309 310 313 315 310 307 314 312 309 314 315 314 318 325 327 327 327 325 326 325 324 324 325 330 331 330 329 328 329 327 328 329 326 323 320 323 324 322 322 325 330 333 335 337
304 304 304 304 304 303 304 304 304 304 304 304 305 305 305 305 305 305 306 306 306 306 305 300 297 298 297 296 295 296 299 301 303 304 305 309 311 312 312 311 310 306 305 306 306 306 309 312 308 307 313 312 310 314 316 316 318 324 326 328 327 325 326 325 324 324 323 327 330 330 327 327 328 327 328 329 328 326 324 323 322 323 326 328 327 328 332 337
304 304 303 303 303 303 303 303 303 304 304 304 304 304 305 305 305 305 305 305 304 305 305 301 298 298 297 295 295 297 299 303 306 305 307 309 309 311 311 310 309 306 305 305 305 306 307 308 306 307 311 311 311 313 316 319 319 322 323 326 325 322 325 325 324 324 324 326 326 329 326 325 327 325 327 328 328 327 324 323 322 322 326 334 332 326 328 333
303 303 303 303 303 303 303 303 303 303 303 304 304 304 304 304 304 304 304 302 301 302 303 301 296 295 296 295 296 298 300 303 305 306 307 306 307 310 310 309 309 307 305 304 305 307 306 305 306 309 310 310 311 311 315 316 315 317 319 320 319 319 323 323 322 323 324 325 325 328 326 325 325 324 325 325 326 326 324 322 321 322 327 333 331 326 328 332
303 303 303 303 303 303 303 303 303 303 303 303 304 304 304 304 304 304 304 302 298 297 301 301 295 293 295 295 297 299 300 299 304 306 307 305 306 307 307 307 307 306 306 305 304 307 309 307 308 311 311 310 310 310 311 311 311 314 315 315 316 317 319 319 318 319 320 321 324 326 324 325 326 325 324 323 324 324 323 323 321 321 322 323 324 328 333 338
303 303 303 303 302 302 302 303 303 303 303 303 303 303 303 304 304 303 302 301 299 296 299 300 295 293 295 295 298 302 302 301 304 306 305 305 305 304 305 305 305 306 306 303 303 309 312 309 308 310 310 309 308 310 309 309 311 313 314 313 313 313 312 314 314 314 315 315 320 321 319 322 325 326 324 322 322 322 321 322 324 323 318 317 323 331 334 336
303 303 302 302 302 302 302 302 302 302 303 303 303 303 304 303 303 302 300 300 298 298 302 299 294 293 295 296 298 305 305 301 304 305 303 304 303 302 304 304 304 305 304 303 303 308 310 308 308 308 309 309 307 309 309 307 310 312 312 312 312 310 309 310 310 310 311 310 314 315 314 317 322 325 324 323 321 321 320 320 325 327 323 321 323 328 329 331
302 302 302 302 302 302 302 302 302 302 302 303 303 303 302 300 299 301 302 301 297 299 302 299 295 295 297 297 297 302 305 302 304 304 302 301 300 301 303 303 303 304 303 303 303 304 307 309 309 307 308 309 306 308 308 307 310 310 310 311 310 309 308 309 308 308 307 309 310 310 310 312 318 322 320 322 322 321 322 320 323 327 327 326 326 326 326 328
302 302 302 302 302 301 301 302 302 302 302 302 302 299 297 296 296 298 300 301 299 300 301 296 295 297 298 298 297 299 302 303 304 302 301 300 299 301 303 303 303 303 303 303 303 304 305 307 308 307 308 309 306 307 308 307 308 307 308 309 309 309 310 309 309 308 307 309 309 308 309 308 313 318 316 320 323 321 324 323 322 323 323 325 327 326 324 326
302 301 301 301 301 301 301 301 302 302 302 302 300 296 295 295 295 296 296 300 299 299 299 297 295 298 299 298 299 300 301 302 303 301 301 300 300 301 302 303 302 302 303 303 304 304 305 305 304 305 307 308 307 308 308 307 307 307 308 307 308 310 310 309 308 309 307 308 308 308 308 308 310 312 311 319 325 322 323 324 323 322 320 321 324 324 322 322
302 301 301 301 301 301 301 301 301 301 302 301 298 294 295 295 295 295 296 298 298 297 299 299 298 299 299 300 301 301 301 302 302 301 301 299 300 302 302 303 302 302 302 303 304 303 304 304 304 306 307 307 308 307 306 306 307 307 307 307 309 309 308 308 308 310 308 308 309 308 308 307 307 309 309 316 326 326 323 323 323 322 320 318 320 321 321 319
301 301 301 300 300 300 300 301 301 301 302 300 296 294 295 295 295 295 296 297 297 297 300 301 299 298 300 303 302 300 300 301 301 301 301 299 301 302 302 302 302 302 302 303 304 303 304 304 304 305 306 307 308 306 305 307 307 307 307 307 308 308 308 307 306 309 308 309 312 308 307 308 306 308 314 317 322 325 324 322 321 321 321 319 319 319 319 319
301 301 300 300 300 300 300 300 300 301 301 298 294 294 295 295 295 295 296 296 296 296 299 300 299 298 301 303 301 300 301 301 301 301 300 300 301 302 303 303 303 303 303 303 303 303 303 303 303 303 304 306 307 305 306 309 309 308 308 307 307 308 309 307 306 308 307 309 313 309 306 307 306 307 314 319 320 320 320 320 320 320 321 321 320 319 319 319
300 300 300 300 299 299 299 300 300 300 300 296 293 295 295 295 295 296 297 296 294 296 298 298 298 299 304 305 301 301 302 301 301 301 300 300 301 302 302 303 303 303 303 303 303 303 302 302 303 304 304 304 305 305 307 309 310 309 307 306 308 309 308 307 308 308 308 308 309 309 307 307 308 308 312 316 317 317 316 316 317 319 320 321 321 320 320 320
300 300 299 299 299 299 299 299 300 300 298 294 293 296 295 295 295 296 297 295 295 298 298 298 298 299 305 305 301 302 302 301 301 300 300 300 301 302 302 303 303 303 303 302 303 302 302 303 303 303 303 304 307 308 307 307 308 308 306 305 308 309 306 307 308 307 307 307 306 307 308 308 308 307 311 313 313 314 314 313 315 316 318 319 319 320 320 320
300 299 299 299 299 299 299 299 299 299 296 293 294 295 294 295 296 296 297 295 296 300 299 299 299 299 301 300 300 302 300 300 301 300 300 300 301 302 302 303 302 302 303 302 303 302 301 302 302 302 304 304 306 308 305 302 303 305 306 305 305 306 305 306 309 307 305 306 306 307 306 307 307 307 310 311 310 311 311 311 312 313 314 315 316 317 318 319
299 299 299 299 298 299 299 299 299 298 295 293 294 295 295 295 295 296 297 295 297 300 299 300 299 299 300 299 299 300 298 298 300 299 300 300 301 302 303 302 300 301 304 304 303 301 300 301 302 303 305 304 304 305 301 298 300 302 306 307 305 305 305 305 307 305 304 305 306 307 306 305 306 307 308 307 307 307 308 308 308 309 310 311 314 316 316 317
299 299 298 298 298 299 298 298 298 296 294 295 294 294 294 295 296 297 295 294 297 298 299 300 298 297 299 298 296 296 296 297 298 299 299 300 301 301 302 302 301 303 305 304 302 302 301 302 303 304 303 303 303 302 300 299 299 300 303 306 305 303 304 304 305 305 304 304 306 306 305 305 305 305 305 305 305 305 305 306 306 307 307 308 310 312 313 315
298 298 298 298 298 298 298 298 297 295 294 295 294 295 296 297 300 302 297 294 296 295 296 297 295 295 296 294 293 294 295 296 296 298 299 298 300 301 301 301 303 304 304 304 303 301 302 303 303 303 302 301 301 300 300 301 300 300 301 303 302 301 302 302 304 307 305 304 306 305 304 304 304 304 304 304 304 304 304 304 305 306 306 307 307 308 309 310
298 298 298 298 298 298 298 298 296 294 295 295 294 296 296 296 299 300 295 294 295 293 294 295 293 294 294 293 292 293 294 295 295 296 297 299 300 301 301 301 304 305 303 304 304 302 303 304 302 302 301 299 300 300 300 301 301 301 300 301 301 300 300 300 302 306 305 304 305 304 304 304 303 303 304 304 303 303 303 303 303 304 305 306 306 306 307 308
297 297 297 297 297 297 297 297 295 293 295 295 295 296 296 295 296 295 294 295 295 292 293 293 292 293 292 291 292 292 293 296 297 296 296 299 299 300 301 301 304 305 303 303 303 303 303 302 302 302 301 300 300 301 301 301 301 300 300 300 300 299 299 301 301 303 303 305 306 304 303 303 302 303 304 305 304 302 302 303 303 303 304 305 305 306 309 311
297 297 297 297 297 297 296 296 294 293 295 295 295 296 295 296 296 294 294 294 295 294 294 294 294 295 294 293 292 292 294 296 297 297 296 299 300 300 301 301 302 304 303 303 303 303 304 302 301 301 302 301 300 301 301 301 300 300 300 300 299 298 298 300 301 300 301 304 306 303 302 302 301 303 304 304 303 302 303 304 304 303 303 303 304 305 308 312
297 296 297 297 296 297 295 294 292 292 294 295 296 296 295 296 295 295 294 294 296 295 293 293 294 296 297 295 292 293 296 296 296 297 297 299 301 300 300 301 302 302 302 302 302 302 302 302 301 301 302 301 301 301 300 300 300 300 300 300 299 299 298 299 300 300 302 304 304 302 302 302 302 303 304 304 303 303 303 304 304 303 302 303 304 304 306 309
296 296 297 296 296 296 293 293 293 291 293 295 296 295 295 296 295 295 293 293 298 297 293 292 293 295 296 293 293 294 296 296 296 297 296 299 301 299 300 300 302 303 301 300 301 300 300 300 300 302 302 300 301 301 300 300 300 300 300 300 299 300 299 299 300 302 303 303 302 303 303 306 308 306 305 304 303 303 302 303 303 302 302 302 303 303 304 306
296 296 296 295 296 296 293 294 293 291 294 295 295 295 294 295 295 295 292 293 302 303 296 295 295 296 295 294 294 294 297 297 295 296 297 299 300 300 301 300 301 302 300 300 301 299 300 300 300 301 302 302 301 301 301 300 300 302 302 301 299 299 300 300 300 302 303 302 301 302 304 306 307 307 308 306 304 304 302 302 303 302 302 302 303 303 302 305
296 295 295 296 296 295 293 294 292 292 294 293 293 294 293 294 294 293 293 295 303 302 297 297 296 295 296 294 294 295 296 297 295 297 299 299 300 299 301 301 301 301 299 300 301 300 302 301 299 300 301 303 302 301 301 300 301 303 302 304 303 301 300 300 300 301 302 302 301 302 303 304 303 304 307 306 305 306 304 302 301 300 301 301 301 302 302 303
296 295 295 296 296 295 293 292 292 292 293 292 292 292 292 295 293 293 296 294 296 298 298 299 296 294 296 293 293 295 296 295 296 298 297 298 300 299 301 302 301 301 300 300 300 300 302 302 301 300 300 301 300 301 301 300 303 303 300 302 304 302 301 300 301 301 301 301 302 301 302 303 304 303 302 301 303 305 305 304 302 300 300 300 300 301 301 302
295 295 295 295 295 294 292 292 292 291 291 291 291 291 293 293 292 296 299 293 293 296 298 298 295 295 296 295 296 296 296 296 296 297 296 298 299 298 300 301 300 301 301 300 300 298 299 300 301 300 300 300 299 302 303 301 302 301 299 300 301 300 300 299 301 301 300 301 303 302 302 303 304 302 301 301 301 302 301 302 301 300 300 300 300 300 300 301
295 295 295 295 294 292 291 291 291 291 291 291 291 292 293 293 297 299 296 293 293 294 296 297 295 296 297 299 299 297 296 296 295 296 298 299 299 297 298 298 298 300 300 299 300 299 297 298 299 299 300 300 300 301 301 301 301 299 299 301 300 300 300 299 299 300 300 302 302 302 302 302 303 303 301 301 303 302 300 300 301 300 300 300 300 299 299 301
294 294 294 294 292 291 291 290 291 291 291 291 292 293 293 295 300 300 293 293 294 293 295 295 295 297 297 298 299 297 297 297 296 298 299 299 299 299 298 298 298 298 299 299 299 299 298 298 299 300 300 299 299 299 298 298 299 299 301 303 301 301 301 300 299 300 301 302 302 302 301 300 302 303 300 300 303 303 300 301 302 301 301 300 299 299 299 300
294 293 293 292 291 290 290 290 291 291 291 293 292 293 297 296 295 298 297 296 295 295 294 293 292 294 295 295 297 298 298 297 297 298 299 300 300 300 299 300 300 299 299 299 299 299 299 299 299 299 300 299 298 299 298 297 297 298 301 302 302 302 302 300 300 301 301 301 301 301 301 300 300 301 299 299 301 302 299 299 301 301 301 300 301 301 300 300
293 293 291 290 290 290 290 291 292 291 292 294 293 296 301 297 293 298 299 297 294 293 291 292 292 292 292 294 297 297 295 296 298 297 297 299 299 299 298 299 300 299 297 298 299 298 298 297 297 298 299 298 299 300 299 298 298 298 299 301 301 302 302 300 300 300 299 299 299 298 299 300 299 300 300 298 298 299 298 297 299 300 300 302 306 305 301 300
292 291 290 289 289 290 292 292 292 292 292 294 297 299 297 293 295 297 297 296 293 290 291 293 293 293 292 294 296 295 293 295 297 296 295 297 297 299 298 297 298 298 297 297 298 298 297 297 297 298 299 299 298 299 299 299 299 297 298 300 300 301 302 299 299 299 298 299 298 297 299 301 301 302 302 300 299 299 298 298 297 298 299 302 304 302 300 299
291 290 289 289 290 292 293 292 292 293 293 294 299 298 292 292 296 295 295 296 292 291 293 293 293 294 293 293 294 293 292 294 294 294 296 297 296 298 299 297 297 297 297 298 299 298 297 297 297 297 298 299 299 298 299 299 299 297 297 299 299 300 300 298 298 298 298 298 297 298 300 300 300 300 299 300 300 299 299 299 298 300 301 301 301 300 298 298
290 289 289 289 290 291 292 292 293 293 294 296 297 296 294 295 294 292 294 294 292 293 294 293 294 294 295 296 295 292 291 293 294 294 296 297 295 296 297 297 297 297 297 298 298 298 297 296 296 295 295 298 298 298 298 299 300 300 298 298 298 298 298 299 298 297 296 296 297 300 301 299 298 299 298 299 300 298 299 299 298 300 301 301 301 299 297 296
289 289 288 289 290 290 291 293 293 293 295 295 294 294 294 294 291 291 293 293 292 293 294 293 293 293 294 296 295 293 291 293 294 293 294 295 294 295 295 295 296 295 296 296 296 297 296 295 296 295 294 296 296 296 298 298 299 300 299 298 297 296 298 299 298 299 298 296 296 299 300 298 297 299 300 299 299 300 300 298 297 299 301 302 300 297 296 296
288 288 288 289 290 291 292 293 293 294 294 292 292 293 293 292 291 291 293 293 293 293 293 293 292 292 294 293 293 293 292 292 293 292 292 292 293 294 293 293 294 293 293 293 293 294 294 294 295 294 293 294 296 296 297 297 297 298 298 299 299 298 298 298 298 299 300 297 296 297 296 296 297 298 299 299 298 299 300 299 298 299 301 301 298 296 295 295
288 288 290 289 290 291 292 291 293 294 293 291 291 291 292 292 292 293 293 292 292 292 292 291 292 293 293 292 292 292 291 291 291 290 291 292 293 293 292 291 292 290 290 290 291 293 293 293 294 293 292 293 295 296 296 296 296 296 296 297 298 298 298 298 298 298 299 299 298 297 296 296 296 296 297 299 298 297 298 300 300 299 299 298 297 295 294 294
288 288 289 288 289 290 290 289 291 292 291 290 290 290 291 291 291 292 293 291 290 292 291 291 291 291 290 291 290 290 289 289 289 289 290 290 292 292 290 289 288 288 288 289 289 292 293 293 293 294 293 293 294 295 294 295 295 296 296 295 296 296 296 296 297 297 298 298 298 297 297 298 297 296 296 296 297 297 297 301 301 298 297 297 296 294 294 293
287 287 288 288 289 290 290 289 290 290 289 289 289 289 290 290 291 291 290 289 289 290 290 289 290 289 289 289 288 288 288 289 289 289 289 289 290 290 288 287 287 288 288 289 289 291 292 292 292 293 293 292 293 294 294 293 293 293 295 295 295 296 296 296 297 297 296 296 297 297 297 298 298 297 297 297 297 296 296 299 300 298 296 296 295 293 293 293
287 287 288 289 289 289 289 288 288 288 288 287 288 288 288 289 289 288 288 288 288 288 288 288 288 288 288 287 287 287 287 288 288 288 288 288 288 288 287 287 287 287 288 289 289 290 291 290 290 291 292 292 292 293 293 291 290 290 291 293 294 295 295 296 296 297 295 294 296 296 296 298 297 296 297 299 298 296 296 296 297 297 296 295 294 293 293 292
287 287 287 287 288 288 287 287 288 288 288 287 288 288 288 288 288 288 288 288 286 286 287 287 287 286 285 285 286 287 287 287 287 287 286 286 286 286 286 286 287 287 288 288 288 288 289 288 288 288 289 289 290 291 290 289 288 288 289 290 292 293 293 294 294 295 295 294 295 296 296 298 296 293 293 295 295 295 295 296 297 297 296 294 293 293 292 291
287 286 286 287 288 288 287 287 287 287 288 288 288 288 287 287 288 287 287 286 285 285 285 285 285 285 285 286 286 286 286 285 285 286 285 285 286 285 284 286 287 285 286 286 286 286 287 287 287 286 286 287 288 290 290 290 289 289 289 290 290 290 290 291 291 289 290 293 296 296 296 298 296 293 293 294 295 295 294 294 295 296 295 293 292 291 290 290
286 285 286 287 288 288 288 287 287 287 287 287 286 286 286 286 287 286 285 284 284 284 284 284 284 285 285 285 285 285 285 284 284 285 284 284 285 284 285 287 286 285 285 286 286 286 286 286 287 286 286 286 286 288 289 290 290 288 289 290 289 288 288 290 291 289 289 293 295 294 295 298 296 295 294 293 293 294 293 291 292 293 292 291 291 290 289 288
286 285 286 287 287 288 288 286 285 286 286 285 284 285 285 285 285 284 284 283 283 283 283 283 284 284 284 283 283 282 282 283 283 284 283 283 283 282 284 286 285 285 285 284 285 286 285 286 287 286 287 286 286 287 288 288 289 288 289 289 288 288 288 289 291 291 291 294 294 294 295 296 296 295 295 292 291 292 292 291 290 290 290 290 290 289 289 288
285 285 286 286 286 286 286 285 284 285 285 284 284 284 284 284 283 283 284 284 284 283 283 283 283 283 283 283 282 282 282 282 282 282 282 281 281 281 283 284 284 284 284 283 284 285 284 284 285 285 285 286 286 286 286 287 288 288 288 289 288 288 288 289 290 290 291 292 293 294 294 294 294 295 294 293 291 291 291 291 290 289 288 289 289 289 289 288
285 286 286 285 285 285 285 284 285 285 284 284 284 283 283 283 283 283 283 284 284 283 283 283 282 282 283 282 280 281 282 281 281 281 280 280 281 281 282 283 283 282 282 283 284 285 284 283 284 284 284 285 285 285 285 285 286 287 288 288 288 287 287 288 288 289 290 290 291 292 291 291 294 294 293 292 291 290 290 290 290 289 288 288 288 288 288 288
285 285 285 283 284 285 285 285 285 284 284 284 284 284 283 283 283 283 283 283 283 283 283 282 281 282 283 282 280 280 280 280 280 280 280 280 281 280 280 281 281 281 282 282 283 284 283 281 283 283 283 284 284 284 284 285 285 287 287 287 287 287 287 287 288 288 289 289 290 291 290 290 293 293 291 290 288 288 288 288 289 289 289 288 288 288 287 287
285 285 285 283 284 284 284 284 284 284 284 284 283 284 284 283 283 282 282 282 281 282 282 281 281 281 281 281 280 280 280 280 280 280 280 280 280 279 280 280 280 281 281 281 282 282 281 281 282 283 282 282 283 283 283 284 285 285 285 286 287 287 286 286 286 287 288 288 289 289 289 290 291 290 290 289 288 288 288 288 289 289 289 289 288 288 288 288
286 285 285 284 284 284 284 284 284 284 284 284 284 284 284 283 283 281 281 282 281 281 281 281 281 280 279 279 279 279 279 279 279 279 280 279 279 279 280 279 279 280 280 280 280 281 281 281 281 281 281 281 281 282 282 283 284 284 284 285 286 287 287 287 287 287 288 288 288 289 289 290 290 290 289 288 287 286 286 286 287 287 288 288 286 285 286 286
285 284 284 283 284 284 284 284 283 283 283 283 283 283 283 282 282 281 280 281 281 281 280 280 279 279 279 279 279 279 279 279 278 279 279 279 279 279 279 279 279 279 279 279 280 280 281 280 280 280 280 280 281 282 282 283 283 282 283 284 285 286 287 286 287 287 287 287 288 289 289 290 291 290 289 287 285 283 282 281 282 283 284 285 284 283 283 283
Wind_Speed
22 23 23 24 24 25 25 25 26 26 26 26 28 29 29 28 26 25 25 24 22 22 21 21 20 19 18 17 17 15 10 3 0 1 0 0 1 1 4 5 8 9 6 4 3 1 2 4 4 4 3 3 2 1 1 1 1 1 3 3 5 6 6 6 7 6 2 2 4 5 5 6 4 4 1 4 5 5 4 3 2 3 1 3 2 4 3 7
22 22 23 24 24 25 25 26 26 26 26 27 27 29 30 30 28 27 25 24 22 20 19 19 19 20 19 17 16 14 11 5 2 3 2 2 1 1 3 6 7 8 6 4 5 4 2 2 3 4 4 2 2 1 1 1 0 2 3 4 6 5 3 4 6 5 2 3 4 5 5 7 5 4 1 3 9 6 5 5 3 6 6 4 2 5 6 9
22 22 23 24 24 25 25 25 26 26 26 27 28 29 29 30 30 29 27 26 23 19 18 17 18 20 21 18 15 12 11 6 2 2 2 4 1 0 2 6 6 6 7 5 5 5 2 1 0 3 4 2 2 2 1 0 1 1 2 4 5 3 2 2 4 5 4 4 4 4 5 6 6 4 1 1 8 11 11 8 4 5 6 6 5 4 5 6
22 23 23 24 24 24 25 25 25 26 26 26 27 28 29 29 29 29 29 27 23 20 17 16 16 20 22 19 14 12 9 3 2 1 4 5 1 1 2 5 5 5 6 6 5 4 3 2 2 4 3 2 3 2 1 2 1 1 2 3 2 1 3 4 3 4 4 5 6 4 5 5 5 4 3 3 3 12 14 10 7 7 6 5 6 4 2 4
22 23 23 23 23 24 24 24 25 26 26 26 26 27 28 28 28 29 29 26 22 19 16 15 15 19 24 20 14 12 6 3 1 1 4 3 2 3 3 3 3 3 5 7 4 2 3 4 4 5 3 2 2 1 1 3 0 1 2 2 2 2 2 2 1 1 1 1 4 4 5 4 3 3 5 7 7 9 9 7 8 8 7 6 4 2 1 3
23 23 23 24 24 24 24 24 24 25 26 26 26 27 27 27 28 28 27 25 21 17 15 15 14 18 23 20 13 9 4 2 1 4 4 3 2 1 2 2 3 2 4 6 3 3 3 5 5 3 2 2 1 2 3 3 2 2 3 3 4 2 2 4 5 4 5 4 2 3 2 2 4 4 6 10 12 9 7 6 6 7 6 5 4 2 0 1
23 24 24 25 25 25 25 25 25 25 25 26 26 26 26 26 27 28 27 25 20 16 15 15 12 17 21 16 10 6 4 2 1 6 4 3 1 1 1 2 2 2 3 5 5 3 4 5 3 2 3 2 2 3 3 3 2 2 3 4 5 4 3 4 5 6 5 4 4 2 4 2 6 6 3 9 13 11 11 6 4 4 2 2 2 4 3 2
22 23 24 25 26 26 26 26 27 27 27 27 27 26 25 26 27 27 26 23 18 14 14 13 10 15 17 10 4 4 3 2 3 5 2 1 1 1 0 1 2 1 3 6 5 3 4 4 3 2 2 0 2 2 2 2 2 3 4 3 3 5 4 5 6 6 6 5 4 5 6 5 7 4 4 10 11 11 12 5 4 4 2 4 4 3 3 3
23 23 24 25 26 26 27 27 27 28 29 29 29 28 27 28 29 28 25 20 14 11 11 8 8 12 12 5 4 3 3 2 5 3 2 3 3 1 0 2 3 2 4 6 6 4 2 2 3 2 2 2 2 1 2 1 1 3 3 3 3 6 6 7 7 5 6 4 3 6 8 7 5 4 9 12 11 8 8 7 6 6 5 6 6 5 5 4
23 24 25 25 26 27 27 28 28 29 30 31 30 29 30 31 31 29 22 15 11 9 7 4 6 10 7 3 5 2 2 4 5 3 3 5 4 3 2 3 3 3 4 4 6 5 2 3 3 3 3 1 1 1 1 2 2 2 3 4 5 7 7 5 6 5 5 4 4 6 10 10 4 5 8 7 8 8 6 8 7 7 9 8 7 6 5 5
23 24 25 26 27 28 28 29 29 29 31 31 30 30 32 33 32 26 16 12 10 5 3 4 6 8 3 2 4 2 4 5 4 3 4 5 5 4 4 3 3 3 4 5 5 5 4 2 3 3 1 1 1 1 1 2 2 4 4 6 6 6 7 4 5 5 2 4 4 4 9 10 5 9 10 4 4 8 8 11 10 9 11 10 10 9 5 6
23 24 25 26 28 28 29 30 30 31 32 31 30 31 32 33 30 20 11 10 9 2 2 4 5 6 2 2 3 5 5 6 4 2 3 4 4 4 4 3 3 4 3 4 5 5 5 2 3 3 1 1 0 1 1 1 3 3 3 5 7 6 7 6 6 5 5 3 2 3 6 10 12 13 9 6 4 7 9 12 12 11 11 10 11 10 8 8
23 25 25 27 28 29 30 30 31 32 32 31 31 31 32 32 24 13 8 9 5 1 2 4 5 6 2 1 2 5 6 5 3 2 1 2 3 4 4 4 4 5 4 4 4 5 6 4 4 2 1 2 1 2 1 3 3 3 2 2 4 6 7 6 4 5 6 5 5 5 4 11 15 11 5 8 8 8 10 11 12 11 9 9 9 9 10 10
23 24 25 27 27 29 30 31 32 32 32 32 31 32 32 28 16 8 8 6 2 5 7 9 7 5 1 2 2 5 6 5 3 2 1 1 2 3 4 4 5 6 6 5 4 5 4 4 4 3 1 1 2 3 4 5 3 3 3 1 1 2 5 4 1 6 5 5 7 8 6 12 11 6 4 8 10 12 12 12 12 10 8 8 8 9 10 11
23 24 25 26 27 29 30 31 32 32 33 33 32 32 30 21 11 7 5 1 8 14 11 13 10 1 1 3 1 5 5 4 4 1 0 0 1 2 2 3 4 6 6 5 5 4 4 4 4 2 1 1 3 3 4 4 2 2 2 2 1 3 4 4 3 7 7 4 6 9 6 9 8 5 4 5 8 10 12 13 12 11 9 8 8 9 9 10
23 24 25 26 27 29 30 31 32 31 33 33 33 31 24 15 9 7 4 1 17 18 6 7 9 5 1 2 2 6 3 3 2 1 1 1 2 2 3 3 3 5 5 5 5 3 4 4 3 2 1 2 4 3 3 3 3 2 2 4 3 5 3 4 5 5 7 3 3 8 6 3 2 3 3 3 3 4 7 10 10 11 10 8 8 8 9 9
23 24 25 26 27 28 29 31 30 31 34 35 35 28 17 10 9 5 6 5 19 9 3 4 9 5 1 1 4 3 0 1 1 2 2 2 3 4 4 4 3 4 5 5 4 3 4 3 1 1 1 2 2 4 2 4 5 1 3 4 4 5 5 4 5 3 3 4 5 9 10 8 4 2 5 4 4 4 5 8 8 9 8 7 7 7 8 8
23 24 25 25 27 28 29 31 29 30 34 35 33 21 10 7 6 1 3 13 16 2 5 4 6 2 2 2 2 1 2 1 1 2 2 2 3 4 4 4 4 5 5 4 3 2 2 3 2 0 2 1 2 5 3 6 4 3 4 3 4 4 6 7 5 2 3 2 6 7 11 14 10 7 9 7 1 3 7 7 7 8 8 7 5 6 7 7
23 24 24 25 27 27 28 29 27 29 32 35 29 11 6 10 2 3 8 18 10 3 1 1 3 1 3 3 4 3 2 1 1 2 4 3 4 5 5 5 5 5 4 2 2 1 1 3 2 1 1 5 6 8 11 6 1 2 5 4 5 5 7 6 5 4 1 2 7 8 12 14 10 9 10 10 6 6 10 7 6 7 7 7 6 6 7 7
22 23 24 25 26 26 28 27 24 26 28 33 28 9 6 12 3 2 14 14 2 4 7 4 1 3 4 4 4 3 4 3 2 3 5 5 6 6 4 4 5 4 2 3 1 1 3 1 3 5 7 10 10 10 10 3 4 1 2 4 5 6 8 2 1 5 2 2 8 8 11 14 11 9 8 10 8 8 12 11 8 7 7 7 8 8 8 9
22 23 24 25 26 26 28 26 21 23 23 27 29 13 4 6 3 4 8 12 10 8 10 10 7 8 8 5 3 3 1 2 2 3 6 7 8 5 1 1 4 1 1 4 2 1 3 3 8 8 10 9 8 8 7 6 4 4 4 5 6 7 8 3 1 4 2 1 7 5 8 14 13 7 6 8 9 10 12 11 10 10 9 7 8 9 9 7
21 23 24 25 26 26 28 24 19 20 18 25 28 14 4 4 2 4 2 9 13 3 7 7 5 7 8 8 8 2 2 2 4 4 7 7 5 4 2 2 4 3 1 3 1 1 0 7 11 8 7 5 6 6 6 9 8 5 3 4 7 7 4 4 4 3 2 3 5 4 5 13 13 7 7 9 10 11 10 10 11 11 11 10 8 8 7 7
21 23 23 24 25 26 28 21 15 19 17 20 22 12 6 7 3 6 2 5 10 3 2 3 3 4 5 4 7 7 2 2 3 4 8 9 3 3 4 4 5 3 3 6 5 3 2 7 9 7 8 6 6 6 6 6 6 6 5 4 9 8 2 4 4 1 3 4 4 4 5 11 11 6 7 9 11 11 8 9 11 9 11 12 9 7 6 7
20 22 21 24 25 26 28 16 13 24 17 11 16 13 13 12 6 5 3 3 7 6 1 4 3 4 3 0 7 9 3 4 2 3 9 11 4 2 4 4 5 3 5 9 8 6 7 5 1 4 8 8 7 5 6 5 5 7 7 7 11 11 7 7 4 2 3 4 4 4 6 9 9 7 8 8 9 10 9 9 10 9 10 9 8 7 7 7
21 21 21 24 24 27 26 9 13 28 15 3 10 15 17 16 10 3 2 2 4 6 2 3 1 3 3 4 7 6 1 3 3 3 7 11 6 3 2 2 3 5 7 7 6 8 10 6 3 4 4 7 7 6 8 8 5 5 8 14 17 13 10 8 1 4 4 5 4 3 4 7 6 5 8 7 6 9 9 9 12 12 10 8 8 9 8 6
21 21 22 24 23 28 21 5 15 28 11 1 9 16 18 18 12 0 1 4 2 5 1 1 0 3 3 4 3 2 1 2 3 1 5 9 7 4 2 1 1 4 6 5 4 5 6 6 6 5 5 6 7 7 7 9 5 5 6 11 15 13 11 9 4 3 3 6 2 3 4 7 5 4 7 6 5 10 9 7 11 11 8 9 9 9 8 6
21 21 23 23 22 26 16 6 20 22 5 5 15 17 17 18 11 0 1 6 3 4 0 1 1 3 3 1 1 1 1 3 3 1 3 5 5 1 2 3 1 2 4 3 1 3 4 4 6 7 7 6 7 8 8 12 7 5 3 6 10 12 13 11 8 6 5 5 3 2 4 6 8 7 4 4 4 10 10 9 11 10 8 9 9 8 8 8
21 21 22 22 22 22 15 14 22 14 6 13 18 18 18 16 9 1 4 4 3 1 2 1 2 4 0 1 2 2 2 4 2 1 1 2 3 0 1 5 4 3 3 4 4 3 4 5 8 9 7 7 8 6 8 13 8 5 1 4 6 8 10 9 7 6 6 5 3 3 4 4 9 6 1 2 6 10 11 12 13 11 10 10 9 9 9 8
21 22 22 22 22 21 19 19 17 11 14 18 17 17 17 13 5 4 5 1 2 1 2 1 3 2 3 2 2 2 2 2 1 2 4 1 2 1 2 4 4 3 4 5 8 6 2 4 7 8 6 7 7 4 9 14 9 3 4 4 4 2 1 2 4 4 4 4 6 8 6 5 9 6 2 2 6 9 11 11 11 10 9 9 10 10 8 6
22 22 22 22 22 23 23 20 13 13 17 17 15 16 13 7 3 6 2 3 2 1 1 2 1 2 4 3 4 3 1 2 1 2 2 1 2 2 1 1 4 1 4 4 9 10 3 1 3 4 6 5 2 2 8 14 9 3 4 4 5 4 4 2 1 3 2 4 8 14 12 9 9 5 5 5 6 9 9 8 9 10 8 9 10 9 7 6
23 22 22 22 23 25 22 17 14 15 14 11 11 11 6 3 5 5 3 5 2 2 1 3 1 3 5 3 3 3 1 3 2 1 1 0 2 1 1 1 3 3 3 5 9 11 7 5 4 3 5 4 2 2 3 6 6 4 3 3 1 3 4 4 3 1 4 6 10 16 12 11 10 7 4 7 7 8 9 8 10 12 11 9 7 7 6 6
23 22 23 23 26 24 16 13 16 14 8 5 7 5 3 3 3 2 4 5 3 2 2 2 1 3 4 2 2 3 1 3 1 3 4 3 2 3 4 5 2 1 5 5 4 7 8 10 10 6 4 5 4 3 1 1 3 4 3 4 3 3 2 1 2 3 5 7 11 12 7 7 10 11 11 9 7 9 9 9 10 11 10 8 6 6 5 5
22 22 25 27 26 20 11 10 12 9 4 3 3 4 7 4 2 4 4 3 1 1 1 2 3 3 2 3 4 3 1 2 3 3 3 3 3 5 6 7 4 2 6 3 2 4 6 6 8 7 5 6 7 5 5 3 4 7 5 5 6 4 3 6 5 3 4 8 11 6 6 5 4 8 15 15 14 13 9 8 10 9 8 7 6 5 5 6
22 24 27 27 19 11 8 7 7 4 3 2 3 5 5 2 5 4 3 4 4 2 2 1 7 6 1 2 4 2 1 3 3 2 2 0 1 4 5 5 6 4 3 2 1 4 8 9 5 8 4 6 11 12 12 5 4 8 7 7 9 6 5 8 6 6 7 5 6 2 5 5 4 6 10 11 13 13 11 10 9 7 7 5 3 4 6 6
24 26 28 23 11 6 8 5 3 3 1 2 5 5 2 4 5 2 3 5 2 4 3 4 6 6 5 4 3 1 2 3 2 2 1 2 3 4 2 3 6 5 1 3 4 3 8 12 8 8 5 9 13 14 11 5 2 5 5 6 9 8 7 6 3 6 6 2 3 2 3 4 4 5 6 4 5 8 12 12 9 7 5 3 2 4 5 5
25 25 25 18 7 7 10 5 1 1 1 4 6 2 3 5 4 2 2 1 1 2 6 7 2 1 6 4 3 4 1 2 1 1 2 2 3 5 4 2 4 7 5 5 5 2 7 9 3 1 3 6 10 9 8 8 5 3 4 7 7 4 5 6 4 1 2 3 5 4 3 3 3 7 7 5 4 4 9 11 10 8 3 4 4 4 4 4
23 21 19 13 7 7 9 4 2 2 2 5 4 3 4 3 4 3 1 1 1 2 4 5 1 3 3 4 3 4 3 2 2 1 2 3 4 4 4 3 1 5 5 5 5 4 8 10 3 4 8 7 5 4 4 7 5 3 5 6 2 1 2 2 3 2 0 6 6 6 8 7 5 6 5 6 6 6 8 9 8 4 3 6 6 5 5 5
19 16 12 7 7 8 7 2 5 5 3 3 2 5 3 2 2 1 1 1 1 2 2 3 3 1 3 4 4 4 3 3 3 2 3 4 6 4 2 3 3 1 4 6 4 2 3 8 5 5 9 6 2 2 6 7 5 3 4 3 4 2 3 3 4 5 5 8 6 7 12 8 7 7 4 6 10 10 9 7 5 5 7 8 6 6 7 7
14 8 4 3 7 7 8 5 3 4 2 2 3 4 2 1 3 0 3 3 1 1 3 6 5 4 5 5 5 5 3 4 5 5 4 3 7 5 5 4 4 6 8 7 5 5 2 4 4 1 2 4 4 2 6 6 4 1 3 3 1 4 5 4 6 6 7 9 7 7 9 5 5 7 6 9 12 10 8 6 6 9 10 9 7 8 8 9
8 2 3 5 3 2 5 8 5 3 0 2 3 3 1 2 3 0 3 4 2 3 4 5 5 5 7 8 9 6 4 7 8 6 6 4 7 8 5 3 3 8 10 6 4 6 3 5 6 2 2 3 2 3 5 6 5 2 3 5 3 3 2 2 4 4 5 7 7 8 8 5 3 5 9 13 11 8 9 9 9 10 10 8 8 9 9 9
4 1 3 3 1 1 7 8 3 2 1 3 3 4 3 3 3 1 2 2 3 3 4 5 6 6 7 7 8 6 4 6 6 4 4 3 5 4 3 5 4 6 8 7 5 5 3 4 6 5 5 6 6 5 5 6 5 3 5 6 6 7 5 5 6 4 3 4 5 7 8 6 3 1 5 7 6 5 7 9 10 9 8 7 7 9 10 9
2 1 4 5 4 6 7 3 2 2 2 3 3 3 5 6 4 3 4 3 2 2 3 3 4 4 5 5 6 5 4 4 5 4 4 4 6 5 3 6 6 4 5 5 6 7 4 2 4 6 6 7 8 7 5 5 3 3 4 3 5 6 6 9 10 6 5 5 4 5 7 6 3 1 2 3 4 4 5 7 7 5 3 5 6 7 8 8
1 4 10 14 12 7 2 1 4 3 3 4 4 5 7 6 5 4 3 1 3 2 2 2 3 4 5 6 6 5 5 5 6 6 6 6 5 3 4 6 6 5 5 3 5 7 5 1 2 5 6 7 8 8 5 1 0 3 4 3 4 4 4 8 9 6 6 8 6 6 7 5 2 2 2 3 3 3 3 5 6 3 3 5 7 7 7 7
2 4 7 10 3 6 4 2 3 3 4 4 4 6 5 3 3 3 2 2 3 2 3 4 4 5 5 6 5 5 6 6 5 5 7 8 3 4 6 5 5 5 3 3 5 5 5 3 2 4 5 6 5 4 4 3 2 2 3 2 3 0 3 6 5 2 4 8 9 9 7 5 3 3 4 5 5 5 5 4 3 4 5 6 7 7 7 8
3 2 2 4 1 7 3 2 3 3 4 4 5 5 3 2 2 2 2 5 1 2 5 6 5 4 4 5 6 6 6 7 6 5 6 6 3 5 5 3 4 5 3 8 11 6 4 4 3 3 4 5 5 4 4 4 2 2 3 4 1 2 2 3 3 3 4 5 8 8 5 4 4 5 7 7 7 7 7 6 5 2 4 6 7 7 7 8
2 1 1 4 1 2 1 0 1 2 2 2 4 2 2 3 3 1 3 6 4 4 6 6 5 5 5 5 6 6 5 6 6 4 4 5 4 4 5 4 4 4 7 14 14 6 2 3 4 5 5 5 6 7 8 9 8 7 6 5 4 2 3 2 2 4 4 3 5 6 5 6 7 4 7 7 6 5 5 5 6 5 1 4 7 8 7 7
0 1 0 2 2 0 1 2 2 1 1 0 2 2 4 8 7 5 4 4 4 3 4 5 3 4 7 7 6 6 5 5 5 5 5 6 6 5 7 5 3 6 12 15 10 4 2 5 7 8 9 8 8 9 10 11 11 12 10 8 8 8 4 3 4 5 4 4 4 2 2 6 7 3 3 4 4 3 3 3 3 4 3 1 4 7 8 8
1 1 1 1 1 1 2 2 2 2 5 4 2 6 11 12 10 7 4 4 3 3 4 5 3 5 8 8 4 4 6 6 7 8 6 5 5 5 5 5 5 10 14 10 5 4 4 5 7 8 10 9 8 8 8 8 9 11 11 10 11 10 8 7 7 7 5 4 4 5 4 4 5 3 3 3 2 1 0 2 4 4 3 2 2 6 8 9
1 2 1 1 1 2 4 5 5 6 9 8 6 8 10 11 12 8 4 3 4 4 4 6 6 7 8 7 4 4 7 7 8 8 6 5 6 4 3 5 6 8 7 4 4 4 2 3 6 8 10 9 7 8 9 9 9 10 10 11 11 9 9 8 8 7 6 6 6 7 7 7 5 4 3 3 3 2 2 3 5 7 6 4 2 2 5 6
1 1 1 1 3 4 4 6 8 7 8 7 7 6 6 7 10 7 3 3 3 3 3 6 10 9 6 6 6 7 8 8 10 10 8 8 8 4 3 4 3 3 3 2 4 3 2 5 8 7 8 8 7 9 10 9 9 10 11 12 11 9 7 6 7 7 5 5 6 6 7 7 3 1 0 1 3 2 4 6 6 8 8 7 5 4 3 4
5 5 3 2 5 5 4 5 5 5 5 5 6 7 6 6 6 3 3 5 6 6 7 9 11 8 3 4 7 9 10 9 11 11 9 8 8 5 4 3 3 4 5 4 4 3 2 4 5 5 6 7 7 9 10 9 9 10 10 10 10 9 6 5 4 5 5 5 6 5 5 5 1 1 2 5 7 7 8 8 6 6 8 10 8 7 7 7
5 6 4 2 4 6 5 4 5 5 4 4 7 7 6 6 4 3 4 4 7 9 8 7 6 3 2 7 10 10 9 7 8 8 7 7 8 7 7 7 8 8 7 6 4 3 4 4 3 4 7 7 7 7 8 8 8 7 6 7 7 7 6 4 4 5 5 4 4 4 3 3 2 3 3 6 8 9 9 9 8 8 7 9 10 8 9 10
Wind_Direction
6 4 2 1 360 359 357 355 353 353 351 350 348 346 346 347 348 349 348 348 347 343 342 346 351 349 350 352 350 352 360 12 328 312 180 228 157 44 2 356 353 354 352 2 17 55 35 14 11 17 48 44 10 28 4 7 47 127 146 197 215 209 208 186 189 195 147 120 172 175 168 182 253 273 301 319 242 227 285 290 309 335 262 215 276 351 14 152
5 3 2 1 359 357 355 354 353 352 350 348 347 345 344 344 345 346 346 347 346 342 341 344 352 350 348 349 345 348 351 351 320 290 236 194 171 338 355 6 356 356 7 25 29 40 49 339 344 23 45 36 343 13 346 338 131 182 160 210 221 206 212 180 188 208 180 161 168 164 169 174 204 240 55 299 255 244 258 265 336 345 322 299 335 32 68 139
4 3 0 360 358 356 355 353 353 350 348 346 345 344 343 342 342 342 342 343 343 342 339 341 350 351 350 347 342 347 341 341 358 319 191 183 203 337 16 8 346 352 15 24 17 20 33 287 337 45 46 48 356 23 34 252 218 197 167 224 228 211 241 223 201 215 210 177 175 183 173 182 189 187 149 257 267 260 245 243 273 292 294 292 298 353 50 120
4 2 360 359 356 355 353 352 351 349 347 345 344 343 341 340 340 339 339 339 339 339 336 334 342 347 348 348 343 343 341 6 17 319 151 174 186 50 20 5 337 342 9 10 2 359 27 76 88 50 58 46 345 19 105 240 226 172 199 222 233 312 265 236 224 226 216 196 208 178 140 200 197 165 184 159 249 256 244 234 235 240 242 252 277 307 40 101
3 2 360 357 355 354 352 351 350 347 346 344 343 340 339 339 337 337 335 334 333 333 332 327 332 340 343 346 342 337 353 37 345 161 135 147 102 44 5 344 315 333 4 2 3 36 55 71 64 41 60 64 346 36 251 255 71 223 248 251 264 304 278 268 312 323 356 230 228 166 151 197 163 159 194 187 216 244 251 238 216 216 211 210 233 269 78 111
0 359 358 356 355 353 351 350 348 346 344 342 340 338 337 336 334 334 332 331 328 325 325 319 323 334 337 342 341 348 32 14 345 129 121 102 88 21 321 302 286 317 354 358 19 85 66 50 52 50 49 42 200 196 265 291 36 260 282 320 285 259 249 303 337 336 12 11 266 197 214 184 161 226 207 202 222 231 245 231 204 213 198 184 177 149 123 187
358 357 357 355 353 353 351 349 346 344 343 340 338 336 335 333 332 331 331 330 324 321 319 313 317 327 333 340 340 16 61 289 148 118 112 101 76 290 278 315 316 307 346 18 36 82 80 62 77 119 82 37 231 227 267 325 19 236 273 310 298 290 261 287 309 307 337 320 269 273 321 281 204 231 195 208 227 230 238 221 190 233 216 202 174 141 179 229
358 357 356 355 352 352 351 348 345 343 342 339 337 336 334 332 330 330 331 328 322 321 314 308 321 326 333 351 357 19 12 268 138 117 102 89 336 339 243 357 33 348 40 41 38 106 106 97 160 147 94 242 193 219 277 342 356 223 253 285 301 302 285 292 302 310 316 292 280 288 288 260 219 247 256 229 229 230 240 232 202 236 264 268 268 225 211 247
358 356 355 354 352 350 349 347 345 342 341 338 336 335 334 334 334 332 329 324 321 319 310 311 338 335 333 5 62 19 307 176 128 119 52 31 11 35 165 52 45 31 69 50 45 99 121 159 196 164 160 219 167 236 317 356 266 227 249 277 291 294 293 299 295 302 308 300 318 299 280 265 231 266 268 242 232 229 235 235 218 225 246 257 266 264 253 250
356 355 354 353 351 349 348 346 344 342 341 338 336 337 338 339 338 334 329 324 321 310 302 298 341 352 343 15 67 31 242 135 121 109 46 25 29 53 69 59 36 39 74 59 58 74 82 181 193 148 148 151 158 250 351 153 236 274 278 273 261 275 281 283 279 289 315 300 283 278 278 278 247 230 249 236 229 222 218 234 221 213 231 239 251 258 255 245
356 356 353 352 351 349 347 345 343 341 340 336 336 340 342 341 337 334 331 326 322 305 274 266 325 357 358 81 100 195 196 145 129 91 47 24 36 56 70 62 37 51 71 72 71 65 59 150 154 102 147 216 206 255 258 212 297 315 317 300 278 284 283 256 263 278 296 283 258 225 271 286 260 234 237 223 225 209 210 235 225 214 223 223 234 242 237 241
357 355 353 352 350 349 347 346 343 341 340 336 338 343 343 339 335 334 332 326 324 318 199 256 320 1 19 101 161 201 179 156 152 100 39 28 47 58 72 65 43 45 55 87 80 64 59 56 81 84 226 229 349 321 259 287 325 310 344 315 299 316 291 246 239 226 176 228 201 148 287 277 247 242 223 191 203 201 211 231 231 224 224 218 222 232 233 232
357 354 353 351 350 350 348 346 344 342 340 338 341 345 343 337 334 335 337 332 317 268 251 259 316 3 9 298 217 190 172 163 158 145 36 26 60 71 73 67 64 59 58 95 91 65 58 42 69 106 167 79 295 271 8 13 353 309 346 308 313 335 297 258 229 187 173 208 160 140 278 259 248 250 190 171 190 206 216 226 234 233 227 228 223 224 237 236
356 355 353 351 350 349 348 347 345 343 341 340 345 346 341 335 332 338 336 341 338 304 282 260 289 350 59 259 221 167 178 173 161 163 95 41 96 86 75 70 71 67 65 86 82 60 58 51 70 82 50 84 273 301 346 1 7 320 311 295 342 313 279 283 212 152 171 225 162 147 246 255 260 272 203 189 192 204 218 225 233 235 224 228 229 224 232 237
356 355 354 351 350 348 348 347 345 345 341 343 348 345 339 333 330 336 318 339 347 324 285 252 258 271 108 287 217 158 177 164 152 172 87 231 122 95 86 82 69 62 65 76 70 56 68 69 71 80 289 347 40 9 340 337 354 6 297 287 250 222 254 301 262 166 171 235 168 159 231 264 278 284 249 222 213 212 219 226 231 236 228 221 229 228 227 234
356 355 354 352 351 350 349 348 346 345 342 345 349 343 335 328 325 325 239 262 341 331 296 230 217 180 137 318 120 137 146 131 141 174 146 141 124 131 123 97 65 61 66 67 68 58 66 68 67 102 205 9 64 71 15 325 321 17 216 245 235 228 268 321 294 216 181 187 186 200 227 275 300 290 321 349 290 259 241 241 240 239 234 222 229 232 227 232
355 355 354 354 353 351 350 349 347 346 343 346 347 341 336 327 323 310 205 317 341 340 109 150 174 175 275 81 105 130 55 62 134 155 148 119 116 140 133 99 67 64 61 55 62 51 39 50 55 61 55 52 112 98 40 276 264 258 216 248 251 238 259 288 312 316 166 178 217 230 241 242 224 275 317 358 43 6 290 267 264 257 251 237 235 242 237 234
355 354 355 354 354 353 351 349 349 347 343 344 345 339 345 345 331 164 210 327 340 65 109 101 154 191 299 33 38 268 296 4 129 156 170 146 121 131 124 105 88 70 46 25 30 40 14 23 69 34 38 76 158 130 198 241 232 208 197 231 264 251 250 254 266 312 65 200 228 234 248 248 246 265 282 286 6 332 277 261 268 271 271 270 258 256 254 246
354 355 354 354 354 353 352 351 351 349 343 345 349 341 7 11 24 141 337 340 358 115 346 117 146 300 275 292 301 273 276 316 289 213 189 169 145 125 104 86 79 78 63 24 343 6 85 38 65 120 169 201 200 183 207 224 94 183 190 205 245 252 247 240 245 258 46 290 250 238 251 257 256 257 268 277 279 279 271 259 260 270 271 274 267 259 261 254
355 355 354 354 355 352 353 353 351 353 351 356 6 21 27 13 18 334 338 339 347 223 278 263 231 293 273 275 288 286 262 253 273 210 188 179 154 119 91 56 52 59 103 147 248 326 101 166 227 208 212 212 210 208 221 249 41 28 228 234 241 250 259 256 307 288 348 269 252 236 253 267 263 252 258 273 277 269 267 263 255 257 261 261 257 252 249 251
355 355 354 353 353 351 352 351 350 358 7 18 30 50 48 11 356 338 333 312 283 234 243 257 257 259 259 260 280 357 341 271 293 225 192 178 153 135 134 71 83 47 208 150 198 351 90 221 234 217 217 215 211 224 245 266 282 279 271 280 275 251 257 259 207 283 16 210 255 254 265 271 265 253 244 259 269 257 252 256 253 246 248 252 254 255 251 256
355 354 353 352 352 349 349 350 351 2 20 37 46 70 76 22 330 301 304 303 301 226 196 246 257 260 265 260 252 257 42 341 303 259 191 167 155 168 187 121 144 196 167 127 160 336 329 250 244 216 194 192 207 218 230 245 256 265 266 291 281 260 269 288 243 234 182 204 261 291 276 270 268 255 236 242 253 253 241 240 243 237 239 243 239 246 254 261
353 353 353 352 352 348 347 346 350 7 26 42 50 69 31 8 327 295 278 277 291 298 148 193 175 240 273 275 217 174 149 231 278 274 188 164 156 170 153 138 157 151 151 181 184 169 221 259 252 206 165 178 212 214 212 237 253 241 237 249 261 267 290 280 274 226 210 227 264 306 299 276 274 260 244 243 244 254 252 240 244 236 231 237 234 232 237 242
351 354 354 352 351 346 345 340 351 6 16 44 47 38 12 1 340 302 283 262 281 294 242 195 175 192 229 280 158 148 150 201 201 264 185 161 137 151 160 144 144 165 207 202 192 209 231 238 236 135 157 184 207 209 199 217 246 234 225 226 246 259 238 238 286 12 303 275 246 280 307 284 268 254 248 246 240 248 251 244 251 247 233 240 248 243 230 229
352 354 354 352 350 344 344 345 357 358 356 70 37 9 0 356 349 318 273 354 292 285 253 208 202 173 164 106 148 159 134 205 221 241 178 163 150 137 175 156 148 206 215 189 187 240 249 221 131 103 147 183 203 219 201 194 231 254 230 224 232 245 242 243 314 44 326 288 223 202 272 278 276 265 254 253 250 249 246 240 244 245 235 230 240 243 233 226
351 351 350 349 348 344 349 5 346 348 347 86 2 348 348 347 349 42 166 36 322 284 309 150 102 165 163 102 157 203 78 266 274 222 172 180 177 130 145 195 155 208 187 159 183 248 249 208 180 181 179 184 206 235 212 178 193 261 234 214 222 234 241 239 213 153 236 269 272 140 207 268 294 271 247 241 258 263 261 259 252 249 240 225 225 232 227 216
347 346 345 346 347 347 355 341 332 342 353 323 336 337 337 340 347 149 88 25 332 284 61 308 24 137 194 200 156 168 226 303 332 125 165 189 210 106 154 197 201 214 161 125 263 239 192 179 171 181 187 191 215 238 205 163 172 247 227 166 195 218 228 226 213 204 228 262 329 102 180 268 277 258 239 195 238 274 275 271 263 254 245 238 230 223 217 206
345 343 343 344 343 343 345 331 327 332 321 319 325 325 329 336 340 87 77 33 298 279 95 307 96 107 317 344 73 87 267 313 31 283 329 156 221 310 211 220 188 205 181 154 235 246 134 152 171 178 192 204 220 229 173 160 186 248 180 130 178 206 216 213 204 215 243 258 265 214 189 254 267 266 31 158 229 258 263 258 258 250 239 240 239 230 219 202
344 343 343 339 334 333 335 328 319 315 316 318 316 315 323 330 335 72 74 38 286 47 103 101 114 80 355 25 33 22 327 331 128 288 333 113 221 89 192 223 164 205 235 198 236 258 108 153 179 176 196 216 220 194 155 173 205 219 118 81 57 69 104 177 188 195 225 236 232 225 196 219 266 259 146 186 232 237 246 251 255 254 240 233 237 235 224 198
342 341 340 336 331 331 330 321 313 318 316 311 306 310 322 331 49 61 22 245 271 356 125 83 106 349 15 28 337 342 307 287 304 337 353 80 318 14 149 180 107 166 259 254 255 256 252 192 192 188 216 219 195 177 177 189 193 127 112 75 41 33 47 42 80 128 193 239 236 232 207 199 256 265 173 203 221 214 228 248 258 259 246 233 233 233 220 196
338 337 336 333 329 331 325 313 320 326 313 303 306 315 332 359 76 87 244 246 269 303 16 46 8 7 29 37 314 318 294 294 321 73 164 238 328 13 56 352 58 51 293 272 260 257 258 249 237 234 225 190 155 230 218 201 185 137 122 109 57 334 24 18 360 126 211 233 233 233 212 195 235 261 211 211 223 217 213 226 243 250 249 241 234 230 218 199
335 332 328 325 324 326 318 307 322 326 313 314 323 337 61 39 24 165 246 301 323 306 27 65 18 355 355 349 264 255 280 294 287 155 181 202 218 197 202 210 160 10 271 249 250 251 243 235 233 239 217 164 170 228 322 305 200 171 140 138 201 279 360 334 252 208 227 241 242 230 197 196 228 248 249 232 235 241 221 217 232 240 247 246 233 223 206 184
335 331 325 323 326 329 325 315 322 326 324 342 349 39 79 61 293 215 238 302 261 284 36 75 343 325 327 336 281 244 253 240 201 174 198 194 211 234 235 218 182 233 258 248 346 282 260 250 224 227 237 178 170 201 227 234 192 181 168 171 204 220 227 232 226 238 250 251 259 231 179 222 221 231 247 238 231 235 228 228 234 235 240 240 228 206 181 173
333 331 326 328 336 345 349 337 326 325 325 5 51 53 53 314 257 219 236 254 247 314 27 22 337 331 253 247 260 243 262 253 187 156 248 249 238 253 260 245 212 213 267 282 265 241 258 274 215 190 215 184 187 214 222 202 158 192 188 187 206 192 202 227 216 233 245 250 276 214 171 224 195 200 240 239 232 228 228 232 228 235 240 230 217 182 169 175
331 331 331 336 354 16 5 359 337 330 321 44 58 70 87 254 256 230 235 249 286 340 321 310 339 334 291 257 271 307 235 245 48 69 248 224 241 249 246 246 213 191 216 261 247 204 235 258 235 202 197 171 191 216 214 186 169 215 189 192 220 205 206 240 213 199 219 258 284 207 205 234 222 255 271 268 263 233 232 238 225 232 234 158 174 186 175 175
333 336 335 337 0 13 360 358 323 333 64 68 63 116 200 226 225 180 193 262 357 352 324 317 352 20 303 301 340 343 285 200 321 344 263 230 244 240 218 229 207 188 187 225 257 253 239 256 252 229 259 191 202 215 196 195 203 191 178 200 227 209 196 248 275 146 145 252 244 202 246 267 251 277 261 225 267 255 239 243 231 229 199 153 196 197 176 171
342 340 330 333 4 4 351 347 171 155 74 80 97 211 214 212 206 177 125 17 52 64 14 328 331 122 295 292 292 320 347 311 296 287 276 292 279 227 204 265 256 193 223 262 258 242 259 268 239 202 251 244 218 225 232 231 205 157 203 199 152 31 129 169 262 292 209 252 244 207 230 230 206 253 245 194 224 244 237 240 235 223 184 193 206 181 169 166
344 332 315 334 15 14 12 32 152 133 79 91 204 245 202 187 232 187 53 37 55 30 7 275 256 206 254 269 288 323 337 312 325 314 283 281 255 210 139 308 321 20 309 316 298 265 292 281 253 206 241 266 61 189 250 264 224 186 244 207 127 217 229 163 214 244 242 249 253 227 236 234 202 230 251 204 218 228 227 233 228 211 208 210 195 171 168 159
345 334 308 2 26 47 49 37 118 108 72 167 230 257 194 212 272 306 28 15 18 288 271 253 257 270 274 286 303 323 329 296 310 306 286 270 259 282 15 342 330 356 345 353 325 293 320 282 275 108 228 307 15 201 221 242 235 205 299 292 196 214 210 195 220 236 242 250 260 244 244 243 203 207 215 223 227 221 215 223 225 222 221 208 182 173 170 163
352 346 282 319 356 112 25 7 37 74 277 207 218 249 258 300 277 209 50 17 327 272 277 272 273 278 283 295 295 298 295 279 280 275 265 281 290 305 1 31 360 344 330 335 305 282 288 265 266 273 235 266 298 235 222 234 240 223 233 251 257 237 233 273 254 238 233 243 249 247 249 252 225 199 206 220 227 211 202 210 222 227 223 204 181 173 169 166
341 316 285 329 104 229 341 2 41 108 207 249 253 255 285 291 262 259 349 323 279 279 296 276 270 276 273 283 294 295 285 266 262 254 246 282 305 296 67 53 3 336 325 322 307 291 287 267 273 273 254 246 237 228 226 231 236 228 227 231 227 225 240 263 255 232 220 231 226 237 252 252 251 244 220 228 236 219 209 215 227 232 219 197 177 171 167 162
314 289 264 273 275 300 345 18 220 195 190 236 239 235 272 280 273 279 283 284 274 294 316 280 266 285 281 284 294 292 292 267 254 261 260 281 294 287 3 18 357 339 330 314 298 300 297 277 285 271 262 274 268 251 226 207 216 242 231 233 248 237 229 240 246 242 241 246 232 240 255 250 239 268 267 267 264 253 239 233 245 261 216 170 158 161 162 159
296 279 280 292 285 273 314 280 247 232 218 233 227 238 256 266 282 290 272 323 6 335 314 294 300 313 299 287 281 279 298 287 248 247 268 281 278 293 349 358 3 356 337 315 307 313 314 289 266 281 289 296 286 272 265 255 180 250 233 212 245 252 244 250 254 249 242 243 242 250 255 257 286 300 283 303 298 285 275 242 232 224 156 151 154 154 153 153
283 266 286 318 311 163 158 230 226 232 258 260 252 265 272 246 259 284 289 335 13 341 294 279 286 290 275 271 268 269 288 288 269 270 282 279 280 9 360 358 10 3 343 315 317 313 308 302 302 313 307 298 302 310 320 356 43 275 274 245 218 349 343 302 288 280 247 225 221 238 249 251 287 340 9 16 19 10 343 309 254 191 164 156 156 156 154 150
326 267 266 330 124 156 177 206 180 243 281 291 289 287 292 275 221 176 296 310 286 225 270 277 277 270 256 263 272 271 266 262 275 297 289 279 303 349 347 353 353 336 293 299 308 301 280 281 286 296 291 291 304 316 321 317 309 292 291 274 251 83 44 314 298 264 248 210 207 232 252 262 293 347 11 15 24 21 3 349 337 287 174 160 155 156 158 156
343 301 318 329 302 173 211 30 59 295 283 318 320 294 224 283 297 247 285 299 270 229 251 268 282 282 271 271 273 271 262 256 269 287 284 286 303 310 301 311 314 280 288 307 312 313 267 257 262 268 270 276 285 293 306 302 287 276 266 258 273 264 199 196 240 251 273 276 235 228 219 237 262 315 357 360 13 21 18 14 355 335 271 164 158 154 153 154
360 251 261 331 317 299 275 291 302 274 204 131 343 322 288 286 289 287 278 273 262 260 271 274 264 256 267 274 274 274 275 272 277 284 278 276 283 290 298 318 323 285 300 308 305 298 282 273 274 271 265 268 274 288 305 305 291 281 275 269 276 276 252 215 227 256 304 312 269 239 195 227 246 272 326 328 350 10 24 54 40 353 330 192 152 146 145 147
158 239 177 140 312 277 257 252 209 231 262 261 250 271 275 270 266 270 280 284 280 272 285 296 264 236 254 256 246 277 288 283 275 272 270 272 290 306 315 330 319 293 295 297 278 270 271 263 270 272 269 269 272 281 297 303 295 288 283 278 275 275 268 251 247 256 269 268 282 322 326 267 270 286 250 246 272 283 234 120 105 76 22 358 144 152 154 154
216 264 245 141 180 244 264 267 260 265 266 261 250 246 251 255 256 256 269 300 300 265 255 273 264 249 252 248 236 260 274 278 278 275 281 290 291 296 301 299 289 276 277 274 267 274 267 266 281 285 281 277 280 291 295 295 297 296 292 282 273 269 265 260 262 257 243 249 270 293 298 281 275 273 240 244 266 223 151 111 99 90 65 22 5 159 151 148
192 248 263 227 236 230 233 249 258 265 257 249 253 245 231 239 247 254 261 258 275 273 240 255 265 262 254 250 257 263 260 266 276 279 288 291 285 281 276 269 266 285 299 288 284 292 274 276 288 292 285 280 283 289 285 280 284 290 294 290 277 267 259 254 258 251 233 246 252 255 277 283 286 308 285 348 345 14 75 81 89 94 89 67 28 14 59 77
237 253 254 266 276 258 232 236 246 257 256 249 253 253 249 246 243 260 268 227 228 247 249 259 272 279 270 251 257 264 263 263 269 272 272 269 267 265 262 247 249 290 292 266 272 290 258 270 298 295 278 278 279 281 282 282 279 272 275 281 274 262 249 230 233 229 214 235 244 235 258 270 261 61 33 46 45 39 38 39 43 56 81 84 59 20 22 34
241 257 240 224 273 269 255 255 253 254 253 238 245 253 260 264 271 297 285 237 223 239 239 242 259 274 271 265 265 268 271 270 271 274 267 260 262 260 256 257 259 261 263 258 261 254 234 253 286 267 267 274 270 274 285 287 280 263 246 245 249 252 247 232 237 246 233 228 232 226 243 255 191 149 98 64 57 51 39 28 17 11 33 71 73 45 22 23